Location: Wald
(31.7579°N, 86.6655°W)
Time: 21:11:19
(UTC+00:00)

SeaSat 1 - Pass Details

Date: 14 July 2020
Orbit: 744 x 748 km, 108.0° (Epoch: 13 August)

Event Time Altitude Azimuth Distance (km) Brightness Sun altitude
Rises 07:18:32 0° 25° (NNE) 3,193 6.8 -32.8°
Reaches altitude 10° 07:20:48 10° 26° (NNE) 2,266 5.8 -32.6°
Enters shadow 07:24:07 43° 33° (NNE) 1,038 3.5 -32.3°
